Wind_Speed
6 6 6 6 6 6 5 5 4 3 2 2 2 3 3 4 4 5 5 6 6 6 5 5 6 6 6 6 6 7 7 9 9 8 8 9 10 10 10 10 11 11 11
6 6 6 6 6 5 5 4 4 3 3 2 1 1 2 3 4 5 5 5 5 5 5 5 5 5 5 5 5 5 6 7 8 8 8 9 9 9 10 11 11 11 12
6 6 6 6 5 5 5 4 3 3 2 2 0 1 2 3 4 5 5 5 4 4 5 5 4 4 4 5 5 5 5 7 8 8 8 8 9 9 10 11 11 11 11
5 6 6 5 5 5 4 3 3 2 2 1 0 0 1 2 2 3 4 5 5 4 4 4 5 5 5 5 5 5 6 7 8 8 9 9 9 9 10 10 11 11 11
5 5 5 5 5 4 3 3 2 2 2 1 2 2 2 2 1 2 3 3 4 5 5 4 4 5 5 6 6 6 6 7 7 8 8 9 10 10 10 10 11 11 11
5 5 5 5 5 4 3 3 2 2 1 2 2 2 2 2 1 1 1 1 3 4 4 5 5 5 5 6 7 7 7 7 8 8 9 9 9 10 11 11 11 11 12
3 4 5 5 5 4 4 3 2 2 1 1 1 1 1 1 2 1 1 1 1 2 4 4 4 5 5 7 7 8 8 8 9 9 9 10 10 11 11 11 12 12 13
3 4 4 5 5 4 3 2 2 2 1 1 0 0 1 1 2 2 1 2 2 2 2 4 4 5 5 6 7 7 8 9 9 11 11 11 11 12 12 12 13 13 13
3 4 4 5 5 4 3 2 2 2 1 1 0 1 1 1 2 2 2 2 3 3 3 4 5 6 6 6 7 8 8 9 10 11 12 12 13 13 13 14 14 14 14
3 3 4 4 4 4 3 3 2 2 2 1 1 1 1 2 2 3 3 3 4 4 5 5 5 6 6 6 7 7 8 9 9 10 11 12 13 14 14 15 15 16 15
3 3 4 4 4 4 4 3 2 2 2 2 1 1 1 2 2 3 4 4 4 5 6 7 7 7 7 7 7 8 9 10 10 11 12 12 13 14 14 15 16 17 17
3 4 4 4 4 4 4 3 3 3 2 2 2 2 2 3 3 4 5 5 6 6 6 7 8 8 9 9 9 10 10 10 11 11 12 12 13 14 13 14 15 16 17
4 4 4 4 4 4 4 3 3 3 3 3 3 3 4 4 4 5 6 6 7 7 8 8 8 9 9 10 10 11 11 11 12 12 12 13 14 14 13 14 14 15 17
5 5 5 5 5 5 4 4 4 4 5 5 5 5 5 6 6 7 7 7 8 9 9 10 10 10 10 10 11 12 12 12 13 13 13 13 14 14 14 15 15 16 17
6 6 6 6 5 5 5 5 5 6 6 6 6 7 7 7 8 8 8 9 10 10 11 11 12 12 12 12 13 13 13 13 14 14 14 14 15 15 16 16 16 18 19
7 7 7 7 7 7 7 7 7 7 8 8 8 9 9 9 9 9 10 11 11 12 12 13 14 13 13 13 14 14 15 15 15 15 16 16 16 17 17 18 18 19 19
8 8 8 8 8 8 8 9 9 9 9 9 10 10 11 11 11 12 12 13 14 14 15 14 15 15 15 15 16 16 16 17 17 17 18 18 19 19 19 20 20 21 22
10 10 10 10 10 10 10 10 10 10 11 11 11 12 12 13 14 15 15 15 16 16 17 16 16 16 17 18 18 18 19 19 19 20 20 21 21 21 22 22 22 23 23
11 11 12 12 12 12 12 12 12 12 12 13 13 14 14 15 15 16 17 17 17 18 18 18 18 19 19 19 19 20 21 21 22 22 22 22 22 22 23 23 23 24 25
12 13 13 13 13 14 13 14 14 14 14 15 15 16 16 17 17 17 18 18 18 19 19 19 20 20 21 22 22 22 23 23 24 24 24 25 25 25 25 25 26 27 27
14 14 14 14 15 15 15 16 16 16 17 17 18 18 18 18 18 18 19 19 20 20 21 21 21 22 23 24 24 25 25 25 26 26 27 27 27 27 28 28 29 29 29
15 15 15 16 16 17 17 17 18 18 19 19 19 19 20 20 19 19 20 21 21 22 22 22 23 23 24 25 26 27 27 27 28 28 29 29 30 31 31 32 32 32 33
17 17 17 18 18 18 19 19 20 20 20 20 21 21 21 21 21 21 22 22 23 23 24 24 25 25 26 27 28 29 29 30 30 30 31 31 33 34 35 35 35 36 36
18 19 19 18 19 19 20 20 20 21 21 21 22 22 22 22 22 23 24 24 24 25 25 26 26 27 28 29 30 31 32 32 33 34 34 34 35 36 37 38 39 39 40
18 18 18 19 19 20 20 21 21 21 22 22 22 22 22 23 23 24 25 25 26 27 27 28 28 29 31 32 33 33 34 35 36 36 37 37 38 38 39 40 41 42 43
17 18 18 19 20 21 21 21 22 22 23 23 23 23 24 24 25 26 26 27 28 29 30 30 31 32 33 34 35 36 37 38 38 39 39 40 40 41 41 42 43 44 45
Wind_Direction
341 345 346 346 344 343 339 342 349 350 336 294 256 235 224 217 208 205 207 208 210 210 209 215 217 222 230 237 239 237 232 227 230 233 238 238 238 234 234 235 238 238 242
341 342 343 345 347 349 349 349 351 353 357 340 303 210 207 211 207 210 208 204 209 211 209 213 218 223 229 235 240 236 225 222 227 230 236 237 237 237 237 240 243 243 244
345 345 347 351 352 354 355 357 357 355 355 355 338 194 197 199 202 209 211 210 212 210 209 212 216 224 227 230 233 233 229 228 231 233 236 240 241 241 243 245 245 245 246
355 358 357 357 356 357 358 5 15 22 13 15 42 143 173 184 203 206 209 209 209 208 207 212 220 228 231 230 231 232 235 236 234 236 241 242 242 244 244 245 245 246 249
358 3 4 3 2 5 7 11 26 38 57 75 90 118 144 152 171 184 192 202 211 215 216 221 233 239 240 238 236 237 240 241 243 243 246 251 249 248 247 248 250 251 253
359 4 8 12 12 14 17 21 31 45 71 84 96 115 134 143 158 185 172 191 217 221 224 230 242 246 249 248 247 246 249 252 252 251 251 255 252 251 252 252 251 252 254
358 7 15 17 15 16 17 23 28 36 57 64 85 123 160 167 177 183 196 201 223 232 237 240 249 252 260 259 258 256 253 257 256 255 253 255 254 256 257 255 257 257 257
357 8 12 9 5 5 8 15 25 28 26 17 99 185 218 215 212 212 223 231 244 249 249 250 254 256 266 268 267 267 263 263 263 259 255 256 258 260 262 260 259 259 261
0 9 10 7 3 3 7 9 8 5 15 359 287 256 234 228 228 238 246 251 255 254 257 260 260 263 269 271 268 271 272 272 272 268 259 260 262 263 263 262 262 263 263
345 355 358 359 358 4 13 10 7 9 2 352 325 255 241 248 249 246 250 258 262 259 260 264 266 269 272 275 275 274 277 277 277 275 265 265 266 265 264 266 265 264 266
328 334 340 347 350 353 358 359 354 349 340 336 321 292 271 262 259 259 259 263 266 266 266 266 265 267 273 276 279 282 281 280 280 279 275 271 271 271 270 270 267 264 263
313 320 328 335 341 346 349 353 351 348 341 327 310 299 289 278 271 276 271 268 267 267 271 272 268 270 272 277 279 282 285 286 285 283 278 274 274 276 275 274 271 268 265
298 308 311 320 327 333 338 339 337 333 329 322 310 302 297 290 285 284 283 275 271 276 275 277 278 279 274 274 277 280 284 286 286 287 282 279 276 277 275 276 275 273 269
285 293 296 300 305 310 317 318 316 315 311 308 301 295 295 292 289 288 286 283 281 281 279 278 279 283 281 281 280 282 284 286 285 286 286 283 281 280 277 275 274 274 274
280 284 288 290 290 295 304 307 303 304 304 301 298 294 293 292 288 287 286 286 285 282 282 284 283 281 282 284 285 286 287 288 287 285 285 283 281 279 279 278 278 278 277
274 278 282 282 280 284 293 299 299 302 302 299 295 291 289 290 291 289 286 285 284 284 285 286 285 284 284 283 284 285 287 289 289 287 284 283 282 280 281 282 281 281 281
272 274 275 279 280 282 288 292 295 296 296 295 295 294 289 287 287 287 287 285 285 285 286 285 285 285 284 284 285 285 286 287 287 285 285 284 284 283 283 284 286 285 284
268 272 276 278 280 284 289 292 292 295 296 296 295 294 291 288 287 287 288 287 286 286 286 286 285 284 284 284 285 284 285 285 286 285 286 285 284 285 285 285 285 285 285
267 272 276 277 279 283 288 291 292 294 294 295 295 295 294 293 291 290 289 288 287 287 286 285 286 285 285 285 285 286 286 286 286 286 287 288 286 287 287 286 286 285 285
268 273 276 278 279 282 284 287 289 291 293 294 295 294 292 291 290 289 288 287 288 288 288 287 286 286 286 286 286 286 286 287 287 288 287 288 287 286 286 286 286 285 285
269 273 276 279 280 281 283 285 287 289 291 292 293 294 294 293 292 291 290 289 288 288 288 287 286 286 286 287 287 287 287 288 288 289 289 288 288 287 286 286 286 286 285
271 275 278 280 281 282 284 285 287 290 291 293 294 295 294 293 292 291 290 289 289 288 288 287 287 286 287 287 288 288 288 288 288 288 288 288 288 288 287 287 287 286 286
275 279 281 282 283 285 286 287 288 289 291 293 294 294 293 292 291 291 291 291 290 288 287 287 287 287 287 287 288 288 288 288 288 288 287 288 287 288 288 288 288 287 287
278 280 282 284 286 287 288 289 290 290 293 294 295 295 295 294 293 293 292 291 290 288 287 287 287 288 288 288 289 288 288 288 287 287 287 287 287 287 288 288 288 287 287
280 282 284 286 287 288 289 289 289 290 294 295 296 296 295 294 294 294 293 292 291 290 289 288 288 289 289 290 289 289 289 288 288 288 288 288 288 288 288 289 288 288 288
282 285 286 288 289 289 290 291 292 292 294 294 295 295 295 294 294 294 294 293 292 292 290 289 290 290 290 291 290 290 290 290 289 289 289 289 289 289 289 289 289 289 288
Height
5871 5869 5868 5867 5866 5864 5864 5863 5862 5861 5861 5861 5861 5862 5862 5863 5864 5865 5866 5866 5867 5868 5869 5870 5871 5872 5872 5872 5872 5872 5872 5873 5875 5877 5878 5879 5880 5881 5882 5883 5884 5885 5886
5870 5869 5868 5866 5865 5864 5863 5862 5862 5861 5861 5861 5861 5861 5862 5862 5863 5864 5865 5866 5867 5868 5868 5869 5870 5871 5871 5871 5871 5871 5871 5873 5874 5876 5877 5878 5878 5879 5880 5881 5882 5883 5884
5870 5868 5867 5866 5865 5863 5862 5862 5861 5861 5861 5861 5861 5861 5862 5862 5863 5863 5864 5865 5866 5867 5868 5869 5870 5870 5870 5871 5871 5871 5872 5873 5874 5875 5875 5876 5877 5878 5879 5879 5880 5881 5882
5869 5868 5867 5866 5864 5863 5862 5861 5861 5861 5861 5861 5861 5861 5862 5862 5863 5863 5864 5865 5866 5867 5867 5868 5869 5869 5870 5870 5870 5871 5871 5872 5873 5873 5874 5875 5876 5876 5876 5877 5878 5879 5879
5869 5868 5867 5865 5864 5863 5862 5862 5861 5861 5861 5861 5861 5861 5862 5862 5862 5863 5864 5864 5865 5866 5867 5868 5868 5869 5869 5869 5869 5870 5870 5871 5871 5872 5873 5873 5874 5874 5875 5875 5875 5876 5877
5869 5868 5867 5865 5864 5863 5863 5862 5861 5861 5861 5861 5861 5861 5861 5862 5863 5863 5863 5864 5865 5865 5866 5867 5867 5868 5868 5868 5868 5869 5869 5869 5870 5870 5871 5871 5872 5872 5873 5873 5873 5874 5874
5869 5868 5867 5866 5864 5864 5863 5862 5862 5861 5861 5861 5861 5862 5862 5862 5863 5863 5863 5864 5864 5865 5866 5866 5867 5867 5867 5867 5867 5867 5868 5868 5868 5869 5869 5869 5870 5870 5870 5871 5871 5871 5871
5869 5868 5867 5866 5865 5864 5863 5862 5862 5862 5861 5861 5862 5862 5862 5863 5863 5863 5863 5864 5864 5864 5865 5865 5866 5866 5866 5866 5866 5866 5866 5866 5866 5867 5867 5867 5867 5867 5867 5867 5867 5868 5868
5869 5868 5867 5866 5865 5864 5863 5863 5862 5862 5862 5862 5862 5862 5862 5862 5862 5863 5863 5863 5863 5864 5864 5864 5865 5865 5865 5865 5865 5865 5864 5864 5864 5864 5864 5864 5864 5864 5864 5864 5864 5864 5863
5869 5868 5867 5866 5865 5864 5863 5863 5862 5862 5862 5862 5862 5862 5862 5862 5862 5862 5863 5863 5863 5863 5863 5863 5864 5864 5864 5863 5863 5863 5862 5862 5861 5861 5861 5861 5861 5861 5860 5860 5859 5860 5860
5868 5868 5867 5866 5865 5864 5864 5863 5862 5862 5862 5862 5861 5861 5861 5861 5861 5861 5862 5862 5862 5862 5862 5862 5862 5862 5862 5862 5861 5861 5860 5860 5859 5858 5858 5858 5858 5857 5856 5854 5853 5853 5855
5868 5867 5867 5866 5865 5864 5864 5863 5862 5862 5862 5861 5861 5861 5860 5860 5860 5860 5860 5860 5860 5860 5860 5860 5860 5860 5860 5859 5859 5859 5858 5857 5857 5856 5855 5854 5854 5853 5852 5850 5849 5849 5851
5867 5867 5866 5866 5865 5864 5863 5863 5862 5862 5861 5861 5860 5860 5860 5860 5859 5859 5859 5859 5859 5859 5858 5858 5858 5858 5857 5857 5857 5856 5856 5855 5854 5853 5852 5851 5851 5850 5849 5848 5847 5847 5848
5866 5866 5865 5865 5864 5864 5863 5862 5862 5861 5861 5860 5859 5859 5859 5858 5858 5858 5857 5857 5857 5857 5856 5856 5856 5855 5855 5854 5854 5853 5853 5852 5851 5850 5849 5848 5848 5847 5846 5845 5845 5845 5844
5865 5865 5864 5864 5863 5863 5862 5861 5861 5860 5860 5859 5858 5858 5857 5857 5856 5856 5855 5855 5855 5854 5854 5854 5853 5853 5852 5852 5851 5850 5850 5849 5848 5847 5846 5845 5845 5844 5843 5842 5841 5841 5840
5863 5863 5863 5862 5862 5861 5861 5860 5859 5859 5858 5857 5857 5856 5855 5855 5854 5854 5853 5853 5852 5852 5851 5851 5850 5849 5849 5848 5848 5847 5846 5845 5844 5843 5842 5842 5841 5840 5839 5838 5837 5836 5835
5861 5861 5861 5861 5860 5860 5859 5858 5858 5857 5856 5855 5855 5854 5853 5852 5852 5851 5850 5850 5849 5849 5848 5848 5847 5846 5845 5845 5844 5843 5842 5841 5840 5839 5838 5837 5836 5835 5835 5834 5833 5832 5831
5859 5859 5859 5859 5858 5858 5857 5856 5856 5855 5854 5853 5852 5851 5850 5849 5848 5848 5847 5846 5845 5845 5844 5844 5843 5842 5842 5841 5840 5839 5838 5837 5836 5835 5834 5832 5831 5830 5829 5828 5827 5826 5825
5857 5857 5857 5856 5856 5855 5855 5854 5853 5852 5851 5850 5849 5848 5847 5846 5845 5844 5843 5842 5841 5840 5840 5839 5838 5837 5837 5836 5835 5834 5833 5832 5831 5829 5828 5827 5826 5824 5823 5822 5821 5819 5818
5854 5854 5854 5853 5853 5852 5852 5851 5850 5849 5848 5847 5846 5844 5843 5842 5841 5839 5838 5837 5836 5835 5835 5834 5833 5832 5831 5830 5829 5828 5827 5826 5825 5823 5822 5820 5819 5818 5817 5815 5814 5812 5811
5851 5850 5850 5850 5849 5849 5848 5847 5846 5845 5844 5843 5842 5840 5839 5837 5836 5834 5833 5832 5831 5830 5829 5828 5827 5826 5825 5824 5823 5822 5821 5819 5818 5816 5815 5813 5812 5810 5809 5807 5806 5804 5802
5847 5847 5847 5846 5846 5845 5844 5843 5842 5841 5840 5838 5837 5835 5833 5832 5830 5829 5827 5826 5825 5824 5823 5822 5821 5820 5819 5818 5816 5815 5814 5813 5811 5810 5807 5806 5804 5802 5800 5799 5797 5795 5793
5843 5843 5842 5842 5841 5841 5840 5838 5837 5836 5835 5833 5831 5830 5828 5826 5824 5823 5821 5820 5819 5817 5817 5816 5815 5813 5812 5811 5809 5808 5806 5804 5803 5801 5799 5798 5795 5793 5791 5789 5787 5785 5783
5839 5838 5838 5837 5837 5836 5835 5833 5832 5831 5829 5828 5826 5824 5822 5820 5818 5817 5815 5814 5812 5811 5810 5809 5807 5806 5804 5802 5801 5799 5797 5796 5794 5791 5789 5788 5786 5784 5781 5778 5776 5774 5771
5834 5834 5833 5833 5832 5831 5830 5828 5827 5825 5824 5822 5820 5818 5816 5814 5813 5811 5809 5807 5805 5804 5802 5801 5799 5797 5795 5794 5792 5790 5788 5786 5784 5781 5779 5777 5775 5773 5771 5768 5764 5761 5758
5830 5829 5829 5828 5827 5826 5824 5823 5821 5820 5819 5817 5815 5813 5810 5808 5806 5804 5802 5800 5798 5796 5794 5792 5790 5788 5786 5784 5782 5779 5777 5775 5772 5770 5768 5765 5763 5760 5759 5756 5752 5749 5745